Regional Weather Roundup
Issued by NWS

Home | Current Version | Previous Version | Text Only | Print | Product List | Glossary Off
Versions: 1 2 3 4 5 6 7 8 9 10 11 12 13 14 15 16 17 18 19 20 21 22 23 24 25 26 27 28 29 30 31 32 33 34 35 36 37 38 39 40 41 42 43 44 45 46 47 48 49 50

000
ASUS43 KMKX 260911
RWRWI

WISCONSIN REGIONAL WEATHER ROUNDUP
NATIONAL WEATHER SERVICE MILWAUKEE/SULLIVAN WI
300 AM CST FRI DEC 26 2014

NOTE: "FAIR" INDICATES FEW OR NO CLOUDS BELOW 12,000 FEET WITH NO
SIGNIFICANT WEATHER AND/OR OBSTRUCTIONS TO VISIBILITY.

WIZ001-002-006>008-014>016-023>028-261000-
NORTHWEST WISCONSIN

CITY           SKY/WX    TMP DP  RH WIND       PRES   REMARKS
SUPERIOR ARPT  CLOUDY    32  27  80 NE3       29.95R
ASHLAND        LGT SNOW  30  30 100 N3        29.93R FOG
HAYWARD        CLOUDY    30  28  92 N3        29.90R FOG
SIREN          CLOUDY    31  31  99 NE5       29.91R FOG     WCI  26
CUMBERLAND     CLOUDY    30  28  93 N3        29.88R FOG
RICE LAKE      CLOUDY    31  30  96 N6        29.90R FOG     WCI  25
CHETEK         CLOUDY    32  30  93 N5        29.88S WCI  27
LADYSMITH      CLOUDY    32  31  94 NE3       29.90R
EAU CLAIRE     CLOUDY    30  27  88 NE6       29.87R WCI  24
MENOMONIE      CLOUDY    29  28  96 CALM      29.88R FOG
NEW RICHMOND   CLOUDY    31  31 100 NE6       29.88S FOG     WCI  25
OSCEOLA        CLOUDY    32  32 100 N5        29.92S FOG     WCI  27
$$

WIZ003>005-009-010-017-018-261000-
NORTH CENTRAL WISCONSIN

CITY           SKY/WX    TMP DP  RH WIND       PRES   REMARKS
MANITOWISH WTR FOG       25  25 100 CALM      29.89R VSB 1/2
ARBOR VITAE    CLOUDY    31  29  95 CALM      29.88R FOG
WOODRUFF       CLOUDY    31  29  95 CALM      29.88R FOG
RHINELANDER    CLOUDY    28  27  96 E3        29.89R FOG
EAGLE RIVER    CLOUDY    28  28 100 CALM      29.88R FOG
LAND O LAKES   CLOUDY    27  27  99 CALM      29.90R FOG
PHILLIPS       CLOUDY    29  28  97 CALM      29.87R
TOMAHAWK       CLOUDY    28  27  96 CALM      29.89S FOG
MEDFORD        CLOUDY    25  24  96 E5        29.87R FOG     WCI  19
MERRILL        MOCLDY    26  26 100 CALM      29.89R FOG
$$

WIZ029-030-035-036-043>047-261000-
CENTRAL WISCONSIN

CITY           SKY/WX    TMP DP  RH WIND       PRES   REMARKS
WAUSAU         CLOUDY    28  27  96 SE3       29.88S
MOSINEE        CLOUDY    28  28 100 E5        29.89S FOG     WCI  23
MARSHFIELD     MOCLDY    29  27  92 NE5       29.88R FOG     WCI  24
STEVENS POINT  CLOUDY    26  26  99 NE3       29.89S FOG
WAUPACA        CLEAR     27  26  95 CALM      29.91S FOG
WAUTOMA        PTCLDY    25  25 100 CALM      29.90S
WISC RAPIDS    PTCLDY    26  24  92 CALM      29.90R FOG
CAMP DOUGLAS   CLOUDY    28  28 100 NE1       29.87R
$$

WIZ011>013-019>022-031-037>040-048>050-261000-
NORTHEAST WISCONSIN

CITY           SKY/WX    TMP DP  RH WIND       PRES   REMARKS
ANTIGO         CLOUDY    28  28 100 S6        29.88S FOG     WCI  21
SHAWANO        FOG       29  28  94 CALM      29.93R VSB 1/4
OCONTO         CLOUDY    25  25 100 CALM      29.94S VSB 1/2
STURGEON BAY   PTCLDY    34  28  80 CALM      29.96S
GREEN BAY      PTCLDY    30  29  96 CALM      29.93R FOG
MANITOWOC      PTCLDY    29  27  92 CALM      29.95S
APPLETON       FOG       28  28 100 SE5       29.91F VSB 1/2 WCI  23
CLINTONVILLE   CLEAR     27  25  93 CALM      29.91S FOG
OSHKOSH        PTCLDY    35  32  88 S10       29.91S WCI  27
$$

WIZ032>034-041-042-053>061-261000-
SOUTHWEST WISCONSIN

CITY           SKY/WX    TMP DP  RH WIND       PRES   REMARKS
LA CROSSE      PTCLDY    27  24  89 CALM      29.86R
SPARTA         PTCLDY    26  26  99 CALM      29.87S
VIROQUA        PTCLDY    35  34  97 SE5       29.85R WCI  31
BOSCOBEL       MOCLDY    36  31  82 CALM      29.88R
PRAIRIE DU CHI MOCLDY    38  30  72 E6        29.86S WCI  34
PLATTEVILLE    MOCLDY    37  33  85 CALM      29.89S
$$

WIZ056-057-062-063-064-067-068-261000-
SOUTH CENTRAL WISCONSIN

CITY           SKY/WX    TMP DP  RH WIND       PRES   REMARKS
REEDSBURG      PTCLDY    38  32  81 CALM      29.88S
BARABOO/DELLS  PTCLDY    37  32  81 S12       29.87S WCI  30
LONE ROCK      MOCLDY    38  30  73 VRB6      29.89R WCI  33
MINERAL POINT  MOCLDY    36  32  87 SE7       29.88S WCI  30
MADISON        MOCLDY    38  33  82 S12       29.90F WCI  30
MIDDLETON      MOCLDY    38  34  82 S8        29.90S WCI  33
WATERTOWN      CLOUDY    36  34  94 S6        29.92F WCI  31
MONROE         MOCLDY    37  34  87 S14       29.90S WCI  29
JANESVILLE     CLOUDY    37  34  87 S7        29.93S WCI  32
$$

WIZ051-052-058>065-066-070>072-261000-
SOUTHEAST WISCONSIN

CITY           SKY/WX    TMP DP  RH WIND       PRES   REMARKS
MILWAUKEE      CLOUDY    39  33  79 SW10      29.95F WCI  32
WAUKESHA       CLOUDY    36  32  87 S8        29.95S WCI  29
MILWAUKEE/TIMM CLOUDY    37  32  81 SW3       29.95S
RACINE         CLOUDY    39  33  79 S8        29.97F WCI  33
BURLINGTON     CLOUDY    36  33  87 S12G17    29.95S WCI  28
KENOSHA        CLOUDY    40  34  79 SW14      29.95F WCI  32
FOND DU LAC    PTCLDY    37  32  82 S13       29.91F WCI  29
SHEBOYGAN      MOCLDY    36  32  85 S6        29.94S WCI  31
WEST BEND      MOCLDY    36  32  87 S5        29.93F WCI  32
JUNEAU         MOCLDY    35  32  90 SE8       29.93F WCI  28
$$

LSZ147-162-261000-
LAKE SUPERIOR

STATION/POSITION TIME  TEMP    WIND        PRES    WAVE
                       AIR SEA DIR/SP/G            HT/PER
                 (UTC) (F)     (DEG/KT/KT) (MB)    (FT/S)
DEVILS ISLAND    0900   34      10/ 13/ 14 1014.7R
PORT WING        0800   31     100/  2/  3 1013.2F
SAXON HARBOR     0800   32        CALM     1013.5R
$$

LMZ867-665-643>646-261000-
LAKE MICHIGAN

STATION/POSITION TIME  TEMP    WIND        PRES    WAVE
                       AIR SEA DIR/SP/G            HT/PER
                 (UTC) (F)     (DEG/KT/KT) (MB)    (FT/S)
CHAMBERS ISLAND  0800   30        CALM     1013.9S
NORTHPORT PIER   0802   32      CALM  /  2 1014.2S
SISTER BAY       0813          170/  4/  7   N/A
ALGOMA LAKESHORE 0845             CALM       N/A
KEWAUNEE LAKESHO 0800   32      CALM  /  1 1013.1S
SHEBOYGAN LAKESH 0900   40 37  190/ 12/ 13 1014.5F
PORT WASHINGTON  0800   39     210/  5/  7 1015.2S
MILWAUKEE LAKESH 0800   40     210/  9/ 11   N/A
KENOSHA   LAKESH 0900   41     200/  8/ 13 1014.6F
$$

TC  - TEMPERATURE IN CELSIUS
VSB - VISIBILITY IN STATUTE MILES
WCI - WIND CHILL INDEX
HX  - HEAT INDEX




USA.gov is the U.S. government's official web portal to all federal, state and local government web resources and services.